{"data":{"norad_id":57346,"epoch":"2026-09-20T05:18:36.412128Z","epoch_age_seconds":148308,"freshness":"FRESH","line1":"1 57346U 23099U   26263.22125477  .00000423  00000+0  24889-4 0  9990","line2":"2 57346  43.0030 230.7100 0000846 269.0921  90.9834 15.27574872175865","mean_motion":15.27574872,"eccentricity":8.46e-5,"inclination_deg":43.003,"raan_deg":230.71,"arg_perigee_deg":269.0921,"mean_anomaly_deg":90.9834,"bstar":2.4889e-5,"rev_number":17586,"period_min":94.267065162879,"perigee_km":482.48399351663,"apogee_km":483.64490880217,"semimajor_km":6861.2014511594,"source":"CELESTRAK","updated_at":"2026-09-21T09:00:33.599561Z"}}